Waarnemingen

Advertentie
Mijn weer
Dieppe, Frankrijk (7040): temperatuur & dauwpunt: 15.03.2019 13:00:00 - 21.03.2019 13:00:00 (CET)Dieppe, Frankrijk (7040): temperatuur 5cm: 15.03.2019 13:00:00 - 21.03.2019 13:00:00 (CET)Dieppe, Frankrijk (7040): windsnelheid & windstoten: 15.03.2019 13:00:00 - 21.03.2019 13:00:00 (CET)Dieppe, Frankrijk (7040): windrichting: 15.03.2019 13:00:00 - 21.03.2019 13:00:00 (CET)Dieppe, Frankrijk (7040): luchtdruk: 15.03.2019 13:00:00 - 21.03.2019 13:00:00 (CET)Dieppe, Frankrijk (7040): zicht: 15.03.2019 13:00:00 - 21.03.2019 13:00:00 (CET)Dieppe, Frankrijk (7040): neerslag: 15.03.2019 13:00:00 - 21.03.2019 13:00:00 (CET)
Datum & Tijd tt [°C] td [°C] tt 5cm [°C] ff [km/u] ff [kn] fx [km/u] fx [kn] dd ppp [hPa] vv [km] rr [mm]
21.03.2019 13:00:00 9,4 8,3 9,5 2 1 4 2 WNW 1035,3 6 0,0
21.03.2019 12:00:00 9,2 8,1 8,1 4 2 7 4 NW 1035,7 - 0,0
21.03.2019 11:00:00 7,6 6,4 7,3 5 3 10 6 Z 1035,7 - 0,0
21.03.2019 10:00:00 6,8 5,9 6,2 8 4 12 7 Z 1035,5 12 0,0
21.03.2019 09:00:00 6,0 5,3 5,6 9 5 14 7 Z 1035,3 - 0,0
21.03.2019 08:00:00 5,5 4,8 5,1 8 5 14 8 Z 1035,0 - 0,0
21.03.2019 07:00:00 5,2 4,5 4,8 9 5 14 8 Z 1034,8 12 0,0
21.03.2019 06:00:00 5,0 4,4 4,8 9 5 14 7 Z 1034,6 - 0,0
21.03.2019 05:00:00 4,9 4,3 4,7 11 6 16 9 Z 1034,5 - 0,0
21.03.2019 04:00:00 5,0 4,4 4,4 12 7 19 11 Z 1034,3 7 0,0
21.03.2019 03:00:00 4,7 4,1 4,3 14 8 19 10 Z 1034,6 - 0,0
21.03.2019 02:00:00 4,9 4,3 4,4 10 5 15 8 Z 1035,1 - 0,0
21.03.2019 01:00:00 5,0 4,4 4,5 10 5 14 7 Z 1035,3 7 0,0
21.03.2019 00:00:00 5,5 4,8 5,0 9 5 12 6 Z 1035,3 - 0,0
20.03.2019 23:00:00 6,2 5,6 5,4 9 5 10 5 ZZO 1035,4 - 0,0
20.03.2019 22:00:00 6,8 6,2 3,9 4 2 6 3 Z 1035,3 3,0 0,2
20.03.2019 21:00:00 6,4 5,8 4,5 3 2 5 3 NO 1035,3 - 0,0
20.03.2019 20:00:00 7,0 6,1 5,7 3 1 6 3 ONO 1035,0 - 0,0
20.03.2019 19:00:00 8,4 7,3 7,7 5 3 11 6 NO 1034,6 3,0 0,0
20.03.2019 18:00:00 9,9 7,8 9,9 7 4 12 6 W 1034,4 - 0,0
20.03.2019 17:00:00 9,9 7,5 10,4 8 4 13 7 WNW 1034,2 - 0,0
20.03.2019 16:00:00 11,7 8,2 14,8 5 3 9 5 NW 1034,4 10 0,0
20.03.2019 15:00:00 10,1 8,0 13,1 6 3 14 7 NO 1035,1 - 0,0
20.03.2019 14:00:00 10,8 8,2 11,5 10 5 14 8 N 1035,4 - 0,0
20.03.2019 13:00:00 10,0 7,8 10,6 5 3 22 12 W 1035,0 7 0,0
20.03.2019 12:00:00 9,8 7,2 9,9 10 5 18 10 Z 1035,0 - 0,0
20.03.2019 11:00:00 8,7 7,0 8,9 11 6 21 12 Z 1034,9 - 0,0
20.03.2019 10:00:00 7,8 6,7 6,9 11 6 18 10 Z 1034,7 7 0,0
20.03.2019 09:00:00 6,1 5,1 5,8 11 6 21 11 Z 1034,3 - 0,0
20.03.2019 08:00:00 5,6 4,6 4,6 14 7 21 11 Z 1033,9 - 0,0
20.03.2019 07:00:00 5,2 4,0 4,4 14 7 19 10 Z 1033,1 11 0,0
20.03.2019 06:00:00 5,8 4,3 4,9 12 7 16 9 Z 1032,7 - 0,0
20.03.2019 05:00:00 6,3 4,3 5,6 12 6 16 9 Z 1032,5 - 0,0
20.03.2019 04:00:00 6,7 4,4 5,9 13 7 16 9 Z 1032,6 15 0,0
20.03.2019 03:00:00 6,8 4,3 6,1 10 5 17 9 Z 1032,7 - 0,0
20.03.2019 02:00:00 6,5 4,0 5,9 11 6 16 8 Z 1032,5 - 0,0
20.03.2019 01:00:00 7,1 4,1 6,6 11 6 16 9 Z 1032,5 15 0,0
20.03.2019 00:00:00 7,5 4,1 6,7 9 5 16 9 Z 1032,4 - 0,0
19.03.2019 23:00:00 7,2 4,3 6,8 10 6 14 8 Z 1032,0 - 0,0
19.03.2019 22:00:00 8,1 4,3 6,5 8 4 11 6 Z 1031,8 15 0,0
19.03.2019 21:00:00 8,3 4,1 6,8 6 3 13 7 ZZW 1031,8 - 0,0
19.03.2019 20:00:00 8,4 5,7 7,7 8 5 16 9 WZW 1030,9 - 0,0
19.03.2019 19:00:00 9,1 7,0 8,3 8 4 13 7 W 1030,8 12 0,0
19.03.2019 18:00:00 10,6 7,1 11,0 10 6 16 9 WNW 1030,0 - 0,0
19.03.2019 17:00:00 10,3 7,7 11,0 8 4 18 10 W 1029,7 - 0,0
19.03.2019 16:00:00 10,2 7,6 11,3 12 6 19 10 W 1029,7 12 0,0
19.03.2019 15:00:00 10,4 7,5 12,2 12 6 19 10 WNW 1029,6 - 0,0
19.03.2019 14:00:00 10,6 8,2 11,8 11 6 21 11 W 1029,6 - 0,0
19.03.2019 13:00:00 10,7 7,6 10,9 13 7 22 12 W 1029,7 - 0,0
19.03.2019 12:00:00 9,7 6,8 10,1 9 5 15 8 W 1029,4 - 0,0
19.03.2019 11:00:00 9,7 6,2 11,0 5 3 18 10 W 1029,0 - 0,0
19.03.2019 10:00:00 8,5 6,3 9,0 10 6 18 10 Z 1028,6 12 0,0
19.03.2019 09:00:00 5,7 4,8 3,8 11 6 19 10 ZZO 1028,1 - 0,0
19.03.2019 08:00:00 3,6 2,9 2,4 14 7 18 10 Z 1027,8 - 0,0
19.03.2019 07:00:00 2,6 1,9 2,0 13 7 17 9 Z 1027,4 11 0,0
19.03.2019 06:00:00 2,6 1,7 1,9 13 7 18 10 Z 1027,1 - 0,0
19.03.2019 05:00:00 3,1 2,4 2,1 14 8 20 11 Z 1026,6 - 0,0
19.03.2019 04:00:00 3,0 2,1 2,4 13 7 16 9 Z 1026,2 14 0,0
19.03.2019 03:00:00 3,9 2,9 3,3 11 6 18 10 Z 1026,1 - 0,0
19.03.2019 02:00:00 4,5 3,3 3,7 10 5 15 8 Z 1026,1 - 0,0
19.03.2019 01:00:00 5,1 3,6 4,4 10 5 14 7 Z 1025,9 - 0,0
19.03.2019 00:00:00 6,0 4,2 5,3 9 5 11 6 Z 1025,8 - 0,0
18.03.2019 23:00:00 7,1 4,6 6,5 5 3 16 9 Z 1025,5 - 0,0
18.03.2019 22:00:00 8,2 5,7 7,4 7 4 20 11 WNW 1025,1 - 0,0
18.03.2019 21:00:00 8,4 5,5 7,7 11 6 25 13 WNW 1024,7 - 0,0
18.03.2019 20:00:00 8,5 5,6 7,8 13 7 23 12 WNW 1024,2 - 0,0
18.03.2019 19:00:00 8,6 5,5 8,1 14 8 26 14 WNW 1023,8 14 0,0
18.03.2019 18:00:00 9,0 5,6 8,8 19 10 28 15 W 1023,3 - 0,0
18.03.2019 17:00:00 9,7 5,5 10,7 16 9 26 14 W 1022,9 - 0,0
18.03.2019 16:00:00 10,2 5,0 11,6 16 9 23 12 W 1022,6 - 0,0
18.03.2019 15:00:00 10,2 5,0 12,6 15 8 25 14 W 1022,7 - 0,0
18.03.2019 14:00:00 9,9 4,5 11,7 16 9 25 14 W 1022,7 - 0,0
18.03.2019 13:00:00 9,5 4,1 9,1 17 9 23 13 WNW 1022,9 - 0,0
18.03.2019 12:00:00 9,1 4,1 9,1 17 9 32 17 WNW 1022,7 - 0,0
18.03.2019 11:00:00 9,1 3,7 8,9 22 12 32 17 NW 1022,3 - 0,0
18.03.2019 10:00:00 8,6 3,6 7,9 22 12 36 19 NW 1021,7 - 0,0
18.03.2019 09:00:00 7,9 3,2 7,6 25 14 37 20 NW 1020,9 - 0,0
18.03.2019 08:00:00 7,8 3,5 7,1 26 14 37 20 NW 1020,1 - 0,0
18.03.2019 07:00:00 7,6 3,4 7,2 30 16 44 24 NW 1019,3 12 0,0
18.03.2019 06:00:00 8,0 3,6 7,7 33 18 48 26 NW 1018,8 - 0,0
18.03.2019 05:00:00 8,2 4,0 7,8 36 19 51 27 NW 1018,1 - 0,0
18.03.2019 04:00:00 8,3 3,9 7,8 34 18 44 24 NW 1017,5 10 0,0
18.03.2019 03:00:00 8,2 4,2 7,8 29 15 45 24 NW 1017,0 - 0,0
18.03.2019 02:00:00 8,4 4,4 8,0 28 15 49 27 NW 1016,4 - 0,0
18.03.2019 01:00:00 8,5 3,5 8,0 34 19 50 27 NW 1015,7 10 0,0
18.03.2019 00:00:00 8,6 4,2 8,0 34 18 56 30 WNW 1015,3 - 0,0
17.03.2019 23:00:00 8,6 4,6 8,2 35 19 57 31 WNW 1014,6 - 0,0
17.03.2019 22:00:00 8,7 3,5 6,7 32 17 56 31 W 1013,8 10 0,0
17.03.2019 21:00:00 8,5 4,9 7,0 29 16 50 27 W 1013,5 - 0,0
17.03.2019 20:00:00 7,5 3,5 6,7 25 13 46 25 WZW 1013,1 - 0,0
17.03.2019 19:00:00 7,6 3,3 7,0 27 15 53 29 WZW 1012,6 11 0,0
17.03.2019 18:00:00 8,6 3,4 8,6 30 16 58 31 WZW 1011,8 - 0,0
17.03.2019 17:00:00 9,0 2,3 8,8 32 17 58 31 W 1011,0 - 0,0
17.03.2019 16:00:00 8,9 2,2 8,8 34 19 56 30 W 1010,6 16 0,0
17.03.2019 15:00:00 7,6 3,8 5,6 29 15 64 34 W 1010,1 - 0,4
17.03.2019 14:00:00 7,6 3,1 7,0 31 17 53 28 W 1009,6 - 0,0
17.03.2019 13:00:00 8,3 2,3 8,3 33 18 53 29 W 1009,3 16 0,0
17.03.2019 12:00:00 7,9 3,0 7,8 31 17 60 33 WNW 1008,5 - 0,0
17.03.2019 11:00:00 7,8 3,8 5,0 33 18 56 31 W 1007,4 - 0,2
17.03.2019 10:00:00 7,4 2,9 6,9 26 14 66 35 WNW 1006,8 - 0,0
17.03.2019 09:00:00 8,5 3,9 7,8 31 17 55 30 W 1005,6 - 0,0
17.03.2019 08:00:00 8,1 4,9 6,7 29 16 55 30 W 1004,4 - 0,0
17.03.2019 07:00:00 8,2 4,8 6,2 35 19 55 30 W 1003,7 12 0,2
17.03.2019 06:00:00 8,4 5,0 7,1 31 17 51 28 W 1002,9 - 0,0
17.03.2019 05:00:00 8,6 5,9 7,1 31 17 57 31 W 1002,1 - 0,2
17.03.2019 04:00:00 8,2 6,8 6,6 24 13 54 29 W 1001,6 12 2,2
17.03.2019 03:00:00 8,6 6,9 7,6 31 17 59 32 WZW 1001,0 - 2,0
17.03.2019 02:00:00 9,4 7,3 8,1 28 15 59 32 ZZW 1000,3 - 0,2
17.03.2019 01:00:00 10,5 5,9 10,0 29 16 59 32 ZZW 1000,3 - 0,0
17.03.2019 00:00:00 10,6 4,9 10,3 31 17 63 34 ZZW 1000,9 - 0,0
16.03.2019 23:00:00 10,8 4,7 10,2 31 17 63 34 ZZW 1002,0 - 0,0
16.03.2019 22:00:00 10,9 4,6 10,4 29 16 60 32 ZZW 1003,0 - 0,0
16.03.2019 21:00:00 11,3 4,5 10,8 34 18 61 33 ZW 1004,0 - 0,0
16.03.2019 20:00:00 11,8 5,4 11,3 24 13 65 35 ZW 1004,4 - 0,0
16.03.2019 19:00:00 12,8 5,9 12,2 23 12 50 27 ZW 1004,6 - 0,0
16.03.2019 18:00:00 13,9 6,5 13,6 22 12 54 29 ZW 1004,8 - 0,0
16.03.2019 17:00:00 14,8 6,6 14,4 26 14 52 28 ZW 1005,5 - 0,0
16.03.2019 16:00:00 14,6 6,4 14,2 26 14 48 26 ZW 1006,5 14 0,0
16.03.2019 15:00:00 14,2 6,3 15,4 28 15 52 28 ZW 1007,8 - 0,0
16.03.2019 14:00:00 13,4 6,3 12,4 31 17 57 31 WZW 1009,3 - 0,0
16.03.2019 13:00:00 12,0 5,8 11,5 31 17 62 34 ZW 1010,3 14 0,0
16.03.2019 12:00:00 11,3 5,6 11,0 32 17 66 35 ZW 1010,9 - 0,0
16.03.2019 11:00:00 10,9 6,2 10,4 29 16 61 33 ZW 1011,6 - 0,0
16.03.2019 10:00:00 10,3 6,6 10,0 30 16 53 29 ZW 1012,1 - 0,0
16.03.2019 09:00:00 10,5 6,8 10,0 31 17 56 30 ZW 1012,5 - 0,0
16.03.2019 08:00:00 10,4 6,7 9,2 29 16 58 31 ZW 1012,7 - 0,0
16.03.2019 07:00:00 10,1 7,2 8,6 28 15 48 26 ZW 1012,8 7 0,0
16.03.2019 06:00:00 10,0 7,6 9,2 28 15 49 26 ZW 1013,6 - 0,0
16.03.2019 05:00:00 10,3 8,2 9,7 26 14 55 30 ZW 1014,1 - 0,0
16.03.2019 04:00:00 10,6 8,0 10,0 31 17 55 30 WZW 1014,1 8 0,0
16.03.2019 03:00:00 10,7 7,9 9,8 33 18 61 33 WZW 1014,9 - 0,0
16.03.2019 02:00:00 10,6 8,7 9,8 32 18 55 30 WZW 1015,5 - 0,0
16.03.2019 01:00:00 10,9 8,6 10,5 31 17 62 34 WZW 1015,6 8 0,0
16.03.2019 00:00:00 11,0 8,9 10,3 34 19 66 36 WZW 1015,6 - 0,0
15.03.2019 23:00:00 11,2 8,9 10,0 37 20 75 40 WZW 1015,5 - 0,0
15.03.2019 22:00:00 11,1 9,0 10,6 42 23 77 41 WZW 1015,2 6 0,0
15.03.2019 21:00:00 11,0 9,3 10,4 44 24 74 40 WZW 1015,1 - 0,0
15.03.2019 20:00:00 11,2 9,3 10,7 45 24 82 45 WZW 1014,6 - 0,0
15.03.2019 19:00:00 11,5 9,2 11,1 48 26 82 44 WZW 1014,2 - 0,0
15.03.2019 18:00:00 11,5 9,2 10,9 49 27 84 45 WZW 1013,6 - 0,0
15.03.2019 17:00:00 11,4 9,6 10,4 48 26 88 48 WZW 1013,4 - 0,0
15.03.2019 16:00:00 11,3 9,9 10,5 50 27 93 50 WZW 1013,6 - 0,0
15.03.2019 15:00:00 11,8 9,9 11,1 49 26 85 46 WZW 1013,5 - 0,0
15.03.2019 14:00:00 11,8 9,7 11,6 54 29 104 56 WZW 1012,9 - 0,0
15.03.2019 13:00:00 11,7 9,8 10,4 50 27 84 46 WZW 1012,8 6 0,0

tt = temperatuur
td = dauwpunt
tt 5cm = temperatuur 5cm
ff = windsnelheid
fx = windstoten
dd = windrichting
ppp = luchtdruk
vv = zicht
rr = neerslag

Weerstations in de omgeving